| time (UTC) | temp F | wind direction | speed MPH | gust MPH | rain 1hr in | rain 24hr in | rain mn in | humidity % | barometer mb |
| 20260508151723 | 53 | 188 | 4.0 | 10.0 | 0.00 | 0.00 | 0.00 | 78 | 1016.3 |
| 20260508151223 | 53 | 178 | 4.0 | 10.0 | 0.00 | 0.00 | 0.00 | 78 | 1016.2 |
| 20260508150723 | 53 | 129 | 2.0 | 8.0 | 0.00 | 0.00 | 0.00 | 79 | 1016.0 |
| 20260508150223 | 53 | 247 | 3.0 | 12.0 | 0.00 | 0.00 | 0.00 | 79 | 1016.1 |
| 20260508145722 | 53 | 143 | 4.0 | 12.0 | 0.00 | 0.00 | 0.00 | 81 | 1015.9 |
| 20260508145226 | 52 | 128 | 4.0 | 13.0 | 0.00 | 0.00 | 0.00 | 82 | 1016.0 |
| 20260508144722 | 52 | 176 | 3.0 | 13.0 | 0.00 | 0.00 | 0.00 | 82 | 1016.1 |
| 20260508144222 | 52 | 266 | 3.0 | 8.0 | 0.00 | 0.00 | 0.00 | 82 | 1016.1 |
| 20260508143221 | 52 | 307 | 2.0 | 4.0 | 0.00 | 0.00 | 0.00 | 82 | 1015.8 |
| 20260508142720 | 53 | 295 | 1.0 | 3.0 | 0.00 | 0.00 | 0.00 | 81 | 1015.8 |
| 20260508142220 | 53 | 319 | 1.0 | 3.0 | 0.00 | 0.00 | 0.00 | 81 | 1015.6 |
| 20260508141714 | 53 | 324 | 2.0 | 4.0 | 0.00 | 0.00 | 0.00 | 80 | 1015.4 |
| 20260508141210 | 54 | 14 | 2.0 | 6.0 | 0.00 | 0.00 | 0.00 | 79 | 1015.3 |
| 20260508140706 | 53 | 40 | 2.0 | 6.0 | 0.00 | 0.00 | 0.00 | 80 | 1015.3 |
| 20260508140207 | 53 | 0 | 3.0 | 11.0 | 0.00 | 0.00 | 0.00 | 79 | 1015.3 |
| 20260508135705 | 54 | 295 | 3.0 | 13.0 | 0.00 | 0.00 | 0.00 | 77 | 1015.3 |
| 20260508135203 | 54 | 120 | 3.0 | 13.0 | 0.00 | 0.00 | 0.00 | 77 | 1015.2 |
| 20260508134701 | 54 | 215 | 3.0 | 9.0 | 0.00 | 0.00 | 0.00 | 77 | 1015.1 |
| 20260508134201 | 54 | 141 | 2.0 | 9.0 | 0.00 | 0.00 | 0.00 | 77 | 1015.0 |
| 20260508133700 | 54 | 186 | 2.0 | 8.0 | 0.00 | 0.00 | 0.00 | 77 | 1015.1 |
| 20260508133202 | 54 | 249 | 3.0 | 9.0 | 0.00 | 0.00 | 0.00 | 77 | 1015.0 |
| 20260508132925 | 54 | 153 | 3.0 | 9.0 | 0.00 | 0.00 | 0.00 | 78 | 1015.1 |
| 20260508132202 | 53 | 349 | 2.0 | 5.0 | 0.00 | 0.00 | 0.00 | 79 | 1015.0 |
| 20260508131700 | 53 | 353 | 2.0 | 4.0 | 0.00 | 0.00 | 0.00 | 79 | 1015.0 |
| 20260508131203 | 53 | 353 | 2.0 | 7.0 | 0.00 | 0.00 | 0.00 | 78 | 1015.2 |
| 20260508130705 | 54 | 341 | 3.0 | 9.0 | 0.00 | 0.00 | 0.00 | 77 | 1015.1 |
| 20260508130203 | 54 | 53 | 4.0 | 9.0 | 0.00 | 0.00 | 0.00 | 76 | 1015.0 |
| 20260508125702 | 54 | 210 | 3.0 | 9.0 | 0.00 | 0.00 | 0.00 | 77 | 1015.0 |
| 20260508125205 | 54 | 353 | 3.0 | 9.0 | 0.00 | 0.00 | 0.00 | 76 | 1015.0 |
| 20260508124707 | 54 | 154 | 4.0 | 9.0 | 0.00 | 0.00 | 0.00 | 76 | 1014.9 |
| 20260508124203 | 54 | 216 | 3.0 | 9.0 | 0.00 | 0.00 | 0.00 | 76 | 1014.9 |
| 20260508123936 | 54 | 157 | 3.0 | 9.0 | 0.00 | 0.00 | 0.00 | 76 | 1015.2 |
| 20260508123153 | 54 | 103 | 3.0 | 9.0 | 0.00 | 0.00 | 0.00 | 76 | 1014.9 |
| 20260508122647 | 54 | 124 | 3.0 | 10.0 | 0.00 | 0.00 | 0.00 | 77 | 1014.9 |
| 20260508122144 | 54 | 164 | 3.0 | 10.0 | 0.00 | 0.00 | 0.00 | 77 | 1014.9 |
| 20260508121638 | 54 | 185 | 2.0 | 7.0 | 0.00 | 0.00 | 0.00 | 77 | 1014.8 |
| 20260508121127 | 54 | 100 | 2.0 | 7.0 | 0.00 | 0.00 | 0.00 | 77 | 1014.8 |
| 20260508120621 | 54 | 10 | 2.0 | 6.0 | 0.00 | 0.00 | 0.00 | 77 | 1014.9 |
| 20260508120115 | 54 | 334 | 2.0 | 10.0 | 0.00 | 0.00 | 0.00 | 77 | 1014.9 |
| 20260508115614 | 54 | 122 | 2.0 | 10.0 | 0.00 | 0.00 | 0.00 | 77 | 1014.9 |
| 20260508115111 | 54 | 112 | 3.0 | 9.0 | 0.00 | 0.00 | 0.00 | 77 | 1014.9 |
| 20260508114830 | 54 | 219 | 3.0 | 9.0 | 0.00 | 0.00 | 0.00 | 77 | 1015.0 |
| 20260508114108 | 54 | 99 | 3.0 | 11.0 | 0.00 | 0.00 | 0.00 | 77 | 1014.9 |
| 20260508113609 | 55 | 126 | 3.0 | 11.0 | 0.00 | 0.00 | 0.00 | 76 | 1015.0 |
| 20260508113109 | 55 | 171 | 3.0 | 12.0 | 0.00 | 0.00 | 0.00 | 76 | 1014.9 |
| 20260508112607 | 55 | 240 | 4.0 | 12.0 | 0.00 | 0.00 | 0.00 | 77 | 1014.7 |
| 20260508112108 | 55 | 137 | 4.0 | 11.0 | 0.00 | 0.00 | 0.00 | 76 | 1014.7 |
| 20260508111608 | 55 | 247 | 4.0 | 12.0 | 0.00 | 0.00 | 0.00 | 76 | 1014.7 |
| 20260508111107 | 55 | 237 | 4.0 | 15.0 | 0.00 | 0.00 | 0.00 | 76 | 1014.7 |
| 20260508110608 | 55 | 174 | 4.0 | 15.0 | 0.00 | 0.00 | 0.00 | 76 | 1014.7 |
| 20260508110108 | 55 | 220 | 3.0 | 8.0 | 0.00 | 0.00 | 0.00 | 76 | 1014.7 |
| 20260508105608 | 56 | 139 | 3.0 | 8.0 | 0.00 | 0.00 | 0.00 | 76 | 1014.6 |
| 20260508105106 | 56 | 261 | 3.0 | 7.0 | 0.00 | 0.00 | 0.00 | 75 | 1014.6 |
| 20260508104839 | 56 | 148 | 3.0 | 10.0 | 0.00 | 0.00 | 0.00 | 75 | 1014.6 |
| 20260508104102 | 56 | 75 | 4.0 | 10.0 | 0.00 | 0.00 | 0.00 | 75 | 1014.6 |
| 20260508103601 | 56 | 165 | 4.0 | 12.0 | 0.00 | 0.00 | 0.00 | 74 | 1014.7 |
| 20260508103102 | 56 | 118 | 4.0 | 12.0 | 0.00 | 0.00 | 0.00 | 75 | 1014.6 |
| 20260508102558 | 56 | 51 | 4.0 | 11.0 | 0.00 | 0.00 | 0.00 | 75 | 1014.6 |
| 20260508102052 | 56 | 107 | 5.0 | 12.0 | 0.00 | 0.00 | 0.00 | 74 | 1014.6 |
| 20260508101546 | 56 | 149 | 4.0 | 12.0 | 0.00 | 0.00 | 0.00 | 74 | 1014.7 |
| 20260508101040 | 57 | 166 | 5.0 | 15.0 | 0.00 | 0.00 | 0.00 | 74 | 1014.7 |
| 20260508100538 | 57 | 95 | 5.0 | 15.0 | 0.00 | 0.00 | 0.00 | 74 | 1014.7 |
| 20260508100312 | 57 | 119 | 5.0 | 12.0 | 0.00 | 0.00 | 0.00 | 74 | 1014.7 |
| 20260508095538 | 57 | 214 | 6.0 | 14.0 | 0.00 | 0.00 | 0.00 | 74 | 1014.8 |
| 20260508095037 | 57 | 120 | 5.0 | 14.0 | 0.00 | 0.00 | 0.00 | 74 | 1014.7 |
| 20260508094538 | 57 | 128 | 4.0 | 11.0 | 0.00 | 0.00 | 0.00 | 74 | 1014.7 |
| 20260508094038 | 57 | 47 | 5.0 | 10.0 | 0.00 | 0.00 | 0.00 | 74 | 1014.6 |
| 20260508093539 | 56 | 106 | 4.0 | 10.0 | 0.00 | 0.00 | 0.00 | 74 | 1014.6 |
| 20260508093038 | 56 | 187 | 5.0 | 13.0 | 0.00 | 0.00 | 0.00 | 74 | 1014.6 |
| 20260508092537 | 56 | 150 | 6.0 | 14.0 | 0.00 | 0.00 | 0.00 | 73 | 1014.5 |
| 20260508092037 | 57 | 99 | 6.0 | 14.0 | 0.00 | 0.00 | 0.00 | 74 | 1014.7 |
| 20260508091538 | 57 | 169 | 5.0 | 12.0 | 0.00 | 0.00 | 0.00 | 74 | 1014.6 |
| 20260508091034 | 57 | 204 | 5.0 | 12.0 | 0.00 | 0.00 | 0.00 | 74 | 1014.6 |
| 20260508090534 | 57 | 212 | 5.0 | 12.0 | 0.00 | 0.00 | 0.00 | 74 | 1014.5 |
| 20260508090034 | 57 | 116 | 5.0 | 12.0 | 0.00 | 0.00 | 0.00 | 74 | 1014.5 |
| 20260508085534 | 57 | 197 | 5.0 | 12.0 | 0.00 | 0.00 | 0.00 | 74 | 1014.5 |
| 20260508085035 | 57 | 214 | 4.0 | 13.0 | 0.00 | 0.00 | 0.00 | 74 | 1014.5 |
| 20260508084810 | 57 | 199 | 4.0 | 13.0 | 0.00 | 0.00 | 0.00 | 74 | 1014.5 |
| 20260508084038 | 57 | 135 | 4.0 | 13.0 | 0.00 | 0.00 | 0.00 | 73 | 1014.6 |
| 20260508083808 | 57 | 103 | 5.0 | 13.0 | 0.00 | 0.00 | 0.00 | 73 | 1014.6 |
| 20260508083039 | 57 | 157 | 5.0 | 13.0 | 0.00 | 0.00 | 0.00 | 74 | 1014.5 |
| 20260508082534 | 57 | 191 | 5.0 | 13.0 | 0.00 | 0.00 | 0.00 | 74 | 1014.6 |
| 20260508082029 | 57 | 159 | 6.0 | 14.0 | 0.00 | 0.00 | 0.00 | 74 | 1014.6 |
| 20260508081535 | 57 | 184 | 5.0 | 14.0 | 0.00 | 0.00 | 0.00 | 74 | 1014.6 |
| 20260508081029 | 57 | 128 | 4.0 | 14.0 | 0.00 | 0.00 | 0.00 | 74 | 1014.6 |
| 20260508080531 | 56 | 156 | 3.0 | 11.0 | 0.00 | 0.00 | 0.00 | 74 | 1014.7 |
| 20260508080031 | 57 | 131 | 4.0 | 11.0 | 0.00 | 0.00 | 0.00 | 73 | 1014.7 |
| 20260508075531 | 57 | 107 | 5.0 | 10.0 | 0.00 | 0.00 | 0.00 | 73 | 1014.6 |
| 20260508075029 | 56 | 129 | 4.0 | 10.0 | 0.00 | 0.00 | 0.00 | 73 | 1014.7 |
| 20260508074530 | 56 | 187 | 2.0 | 7.0 | 0.00 | 0.00 | 0.00 | 74 | 1014.7 |
| 20260508074029 | 56 | 301 | 2.0 | 7.0 | 0.00 | 0.00 | 0.00 | 73 | 1014.8 |
| 20260508073529 | 56 | 199 | 3.0 | 7.0 | 0.00 | 0.00 | 0.00 | 74 | 1014.8 |
| 20260508073029 | 56 | 94 | 4.0 | 10.0 | 0.00 | 0.00 | 0.00 | 73 | 1014.8 |
| 20260508072523 | 56 | 111 | 3.0 | 10.0 | 0.00 | 0.00 | 0.00 | 74 | 1014.9 |
| 20260508072016 | 56 | 132 | 2.0 | 9.0 | 0.00 | 0.00 | 0.00 | 75 | 1015.0 |
| 20260508071513 | 56 | 102 | 2.0 | 9.0 | 0.00 | 0.00 | 0.00 | 75 | 1015.0 |
| 20260508071247 | 56 | 245 | 2.0 | 7.0 | 0.00 | 0.00 | 0.00 | 76 | 1015.1 |
| 20260508070512 | 55 | 299 | 2.0 | 7.0 | 0.00 | 0.00 | 0.00 | 76 | 1014.9 |
| 20260508070011 | 55 | 72 | 0.0 | 4.0 | 0.00 | 0.00 | 0.00 | 77 | 1014.9 |
| 20260508065511 | 55 | 103 | 1.0 | 3.0 | 0.00 | 0.00 | 0.00 | 76 | 1015.1 |
| 20260508065012 | 56 | 103 | 1.0 | 4.0 | 0.00 | 0.00 | 0.00 | 75 | 1015.0 |
| 20260508064512 | 56 | 326 | 2.0 | 9.0 | 0.00 | 0.00 | 0.00 | 74 | 1015.0 |
| 20260508064012 | 56 | 202 | 3.0 | 9.0 | 0.00 | 0.00 | 0.00 | 74 | 1015.0 |
| 20260508063511 | 56 | 157 | 2.0 | 9.0 | 0.00 | 0.00 | 0.00 | 74 | 1015.0 |
| 20260508063011 | 56 | 222 | 2.0 | 11.0 | 0.00 | 0.00 | 0.00 | 74 | 1015.1 |
| 20260508062511 | 56 | 122 | 2.0 | 11.0 | 0.00 | 0.00 | 0.00 | 74 | 1015.0 |
| 20260508062011 | 56 | 210 | 2.0 | 8.0 | 0.00 | 0.00 | 0.00 | 75 | 1015.1 |
| 20260508061511 | 56 | 32 | 2.0 | 5.0 | 0.00 | 0.00 | 0.00 | 75 | 1015.2 |
| 20260508061011 | 56 | 309 | 2.0 | 5.0 | 0.00 | 0.00 | 0.00 | 74 | 1015.2 |
| 20260508060510 | 56 | 231 | 2.0 | 6.0 | 0.00 | 0.00 | 0.00 | 75 | 1015.2 |
| 20260508060012 | 56 | 112 | 2.0 | 6.0 | 0.00 | 0.00 | 0.00 | 75 | 1015.2 |
| 20260508055510 | 56 | 38 | 2.0 | 9.0 | 0.00 | 0.00 | 0.00 | 75 | 1015.2 |
| 20260508055008 | 56 | 182 | 3.0 | 14.0 | 0.00 | 0.00 | 0.00 | 75 | 1015.2 |
| 20260508054512 | 56 | 223 | 5.0 | 14.0 | 0.00 | 0.00 | 0.00 | 74 | 1015.2 |
| 20260508054009 | 56 | 214 | 5.0 | 14.0 | 0.00 | 0.00 | 0.00 | 75 | 1015.2 |
| 20260508053507 | 56 | 158 | 4.0 | 14.0 | 0.00 | 0.00 | 0.00 | 75 | 1015.2 |
| 20260508053006 | 56 | 160 | 5.0 | 11.0 | 0.00 | 0.00 | 0.00 | 75 | 1015.2 |
| 20260508052735 | 56 | 222 | 5.0 | 12.0 | 0.00 | 0.00 | 0.00 | 74 | 1015.1 |
| 20260508052232 | 56 | 177 | 5.0 | 13.0 | 0.00 | 0.00 | 0.00 | 74 | 1015.1 |
| 20260508051502 | 56 | 162 | 7.0 | 15.0 | 0.00 | 0.00 | 0.00 | 74 | 1015.1 |
| 20260508051000 | 56 | 112 | 8.0 | 15.0 | 0.00 | 0.00 | 0.00 | 74 | 1015.1 |
| 20260508050501 | 56 | 123 | 9.0 | 18.0 | 0.00 | 0.00 | 0.00 | 73 | 1015.2 |
| 20260508050001 | 56 | 164 | 9.0 | 18.0 | 0.00 | 0.00 | 0.00 | 74 | 1015.1 |
| 20260508045501 | 57 | 137 | 8.0 | 17.0 | 0.00 | 0.00 | 0.00 | 74 | 1015.2 |
| 20260508045001 | 56 | 170 | 7.0 | 17.0 | 0.00 | 0.00 | 0.00 | 73 | 1015.1 |
| 20260508044507 | 56 | 156 | 8.0 | 14.0 | 0.00 | 0.00 | 0.00 | 73 | 1015.1 |
| 20260508044003 | 57 | 138 | 8.0 | 14.0 | 0.00 | 0.00 | 0.00 | 73 | 1015.3 |
| 20260508043002 | 57 | 141 | 9.0 | 17.0 | 0.00 | 0.00 | 0.00 | 73 | 1015.4 |
| 20260508042504 | 57 | 116 | 8.0 | 17.0 | 0.00 | 0.00 | 0.00 | 73 | 1015.4 |
| 20260508041502 | 57 | 170 | 8.0 | 13.0 | 0.00 | 0.00 | 0.00 | 73 | 1015.5 |
| 20260508041001 | 56 | 145 | 8.0 | 13.0 | 0.00 | 0.00 | 0.00 | 73 | 1015.6 |
| 20260508040501 | 57 | 128 | 8.0 | 15.0 | 0.00 | 0.00 | 0.00 | 73 | 1015.5 |
| 20260508040001 | 56 | 151 | 8.0 | 15.0 | 0.00 | 0.00 | 0.00 | 73 | 1015.5 |
| 20260508035501 | 56 | 159 | 8.0 | 13.0 | 0.00 | 0.00 | 0.00 | 73 | 1015.5 |
| 20260508035001 | 56 | 159 | 8.0 | 14.0 | 0.00 | 0.00 | 0.00 | 72 | 1015.5 |
| 20260508034502 | 57 | 127 | 8.0 | 14.0 | 0.00 | 0.00 | 0.00 | 72 | 1015.5 |
| 20260508033456 | 57 | 127 | 7.0 | 14.0 | 0.00 | 0.00 | 0.00 | 72 | 1015.4 |
| 20260508032950 | 57 | 145 | 6.0 | 14.0 | 0.00 | 0.00 | 0.00 | 72 | 1015.4 |
| 20260508032444 | 57 | 136 | 6.0 | 13.0 | 0.00 | 0.00 | 0.00 | 72 | 1015.4 |
| 20260508031938 | 57 | 176 | 6.0 | 13.0 | 0.00 | 0.00 | 0.00 | 72 | 1015.4 |
| 20260508031433 | 57 | 159 | 7.0 | 12.0 | 0.00 | 0.00 | 0.00 | 72 | 1015.5 |
| 20260508031207 | 57 | 116 | 7.0 | 12.0 | 0.00 | 0.00 | 0.00 | 72 | 1015.5 |
| 20260508030430 | 57 | 147 | 5.0 | 11.0 | 0.00 | 0.00 | 0.00 | 71 | 1015.6 |
| 20260508025931 | 58 | 97 | 5.0 | 13.0 | 0.00 | 0.00 | 0.00 | 71 | 1015.5 |
| 20260508025428 | 58 | 172 | 4.0 | 13.0 | 0.00 | 0.00 | 0.00 | 70 | 1015.6 |
| 20260508024930 | 58 | 139 | 4.0 | 11.0 | 0.00 | 0.00 | 0.00 | 70 | 1015.5 |
| 20260508024700 | 59 | 101 | 3.0 | 11.0 | 0.00 | 0.00 | 0.00 | 70 | 1015.5 |
| 20260508023929 | 59 | 276 | 3.0 | 10.0 | 0.00 | 0.00 | 0.00 | 69 | 1015.6 |
| 20260508023705 | 60 | 213 | 4.0 | 10.0 | 0.00 | 0.00 | 0.00 | 68 | 1015.7 |
| 20260508022931 | 60 | 302 | 4.0 | 10.0 | 0.00 | 0.00 | 0.00 | 68 | 1015.8 |
| 20260508022431 | 60 | 229 | 5.0 | 13.0 | 0.00 | 0.00 | 0.00 | 67 | 1015.8 |
| 20260508021930 | 60 | 258 | 5.0 | 13.0 | 0.00 | 0.00 | 0.00 | 66 | 1015.8 |
| 20260508021429 | 60 | 209 | 4.0 | 12.0 | 0.00 | 0.00 | 0.00 | 67 | 1015.7 |
| 20260508020930 | 60 | 216 | 4.0 | 12.0 | 0.00 | 0.00 | 0.00 | 67 | 1015.7 |
| 20260508020429 | 60 | 180 | 6.0 | 13.0 | 0.00 | 0.00 | 0.00 | 67 | 1015.7 |
| 20260508015929 | 60 | 252 | 6.0 | 13.0 | 0.00 | 0.00 | 0.00 | 66 | 1015.8 |
| 20260508015428 | 61 | 216 | 5.0 | 12.0 | 0.00 | 0.00 | 0.00 | 65 | 1015.9 |
| 20260508014940 | 61 | 239 | 5.0 | 12.0 | 0.00 | 0.00 | 0.00 | 66 | 1015.9 |
| 20260508014439 | 62 | 226 | 5.0 | 12.0 | 0.00 | 0.00 | 0.00 | 65 | 1016.0 |
| 20260508013930 | 62 | 281 | 4.0 | 9.0 | 0.00 | 0.00 | 0.00 | 64 | 1016.0 |
| 20260508013423 | 62 | 247 | 4.0 | 10.0 | 0.00 | 0.00 | 0.00 | 67 | 1016.0 |
| 20260508012916 | 63 | 234 | 4.0 | 10.0 | 0.00 | 0.00 | 0.00 | 63 | 1016.0 |
| 20260508012414 | 64 | 304 | 2.0 | 5.0 | 0.00 | 0.00 | 0.00 | 67 | 1016.1 |
| 20260508012142 | 64 | 285 | 2.0 | 4.0 | 0.00 | 0.00 | 0.00 | 65 | 1016.1 |
| 20260508011414 | 64 | 355 | 1.0 | 4.0 | 0.00 | 0.00 | 0.00 | 66 | 1016.2 |
| 20260508011142 | 63 | 167 | 2.0 | 9.0 | 0.00 | 0.00 | 0.00 | 68 | 1016.2 |
| 20260508010413 | 61 | 137 | 3.0 | 9.0 | 0.00 | 0.00 | 0.00 | 68 | 1016.3 |
| 20260508005912 | 61 | 232 | 3.0 | 8.0 | 0.00 | 0.00 | 0.00 | 69 | 1016.3 |
| 20260508005412 | 61 | 242 | 3.0 | 8.0 | 0.00 | 0.00 | 0.00 | 69 | 1016.4 |
| 20260508004912 | 61 | 190 | 3.0 | 8.0 | 0.00 | 0.00 | 0.00 | 71 | 1016.4 |
| 20260508004412 | 60 | 249 | 3.0 | 7.0 | 0.00 | 0.00 | 0.00 | 71 | 1016.5 |
| 20260508003911 | 61 | 314 | 2.0 | 5.0 | 0.00 | 0.00 | 0.00 | 70 | 1016.5 |
| 20260508003411 | 61 | 314 | 2.0 | 4.0 | 0.00 | 0.00 | 0.00 | 72 | 1016.5 |
| 20260508002912 | 61 | 295 | 2.0 | 4.0 | 0.00 | 0.00 | 0.00 | 71 | 1016.5 |
| 20260508002409 | 60 | 177 | 3.0 | 7.0 | 0.00 | 0.00 | 0.00 | 71 | 1016.6 |
| 20260508001910 | 60 | 312 | 3.0 | 7.0 | 0.00 | 0.00 | 0.00 | 72 | 1016.7 |
| 20260508001635 | 60 | 228 | 3.0 | 6.0 | 0.00 | 0.00 | 0.00 | 71 | 1016.7 |
| 20260508000908 | 60 | 302 | 3.0 | 6.0 | 0.00 | 0.00 | 0.00 | 69 | 1016.7 |
| 20260508000408 | 61 | 247 | 3.0 | 6.0 | 0.00 | 0.00 | 0.00 | 69 | 1016.7 |
| 20260507235907 | 61 | 250 | 4.0 | 6.0 | 0.00 | 0.00 | 0.00 | 70 | 1016.7 |
| 20260507235408 | 62 | 253 | 3.0 | 6.0 | 0.00 | 0.00 | 0.00 | 70 | 1016.6 |
| 20260507234908 | 61 | 285 | 3.0 | 5.0 | 0.00 | 0.00 | 0.00 | 70 | 1016.6 |
| 20260507234409 | 60 | 270 | 3.0 | 7.0 | 0.00 | 0.00 | 0.00 | 72 | 1016.6 |
| 20260507234137 | 60 | 285 | 3.0 | 7.0 | 0.00 | 0.00 | 0.00 | 72 | 1016.6 |
| 20260507233404 | 60 | 263 | 3.0 | 6.0 | 0.00 | 0.00 | 0.00 | 73 | 1016.7 |
| 20260507232903 | 60 | 239 | 4.0 | 8.0 | 0.00 | 0.00 | 0.00 | 71 | 1016.7 |
| 20260507232404 | 60 | 201 | 3.0 | 8.0 | 0.00 | 0.00 | 0.00 | 70 | 1016.7 |
| 20260507232127 | 60 | 241 | 3.0 | 6.0 | 0.00 | 0.00 | 0.00 | 71 | 1016.7 |
| 20260507231404 | 61 | 253 | 3.0 | 6.0 | 0.00 | 0.00 | 0.00 | 69 | 1016.8 |
| 20260507230904 | 61 | 205 | 3.0 | 7.0 | 0.00 | 0.00 | 0.00 | 70 | 1016.9 |
| 20260507230404 | 61 | 318 | 3.0 | 7.0 | 0.00 | 0.00 | 0.00 | 72 | 1017.0 |
| 20260507225905 | 61 | 312 | 3.0 | 6.0 | 0.00 | 0.00 | 0.00 | 73 | 1017.0 |
| 20260507225402 | 61 | 232 | 4.0 | 8.0 | 0.00 | 0.00 | 0.00 | 71 | 1017.1 |
| 20260507224859 | 60 | 262 | 4.0 | 8.0 | 0.00 | 0.00 | 0.00 | 72 | 1017.2 |
| 20260507224625 | 61 | 204 | 4.0 | 7.0 | 0.00 | 0.00 | 0.00 | 70 | 1017.0 |
| 20260507223858 | 61 | 274 | 3.0 | 7.0 | 0.00 | 0.00 | 0.00 | 71 | 1017.2 |
| 20260507223354 | 62 | 272 | 3.0 | 8.0 | 0.00 | 0.00 | 0.00 | 68 | 1017.3 |
| 20260507222854 | 62 | 261 | 4.0 | 8.0 | 0.00 | 0.00 | 0.00 | 72 | 1017.3 |
| 20260507222355 | 61 | 295 | 4.0 | 8.0 | 0.00 | 0.00 | 0.00 | 73 | 1017.4 |
| 20260507221854 | 61 | 285 | 4.0 | 8.0 | 0.00 | 0.00 | 0.00 | 71 | 1017.4 |
| 20260507221351 | 61 | 303 | 4.0 | 8.0 | 0.00 | 0.00 | 0.00 | 72 | 1017.4 |
| 20260507220852 | 62 | 207 | 3.0 | 8.0 | 0.00 | 0.00 | 0.00 | 68 | 1017.6 |
| 20260507220352 | 63 | 300 | 3.0 | 8.0 | 0.00 | 0.00 | 0.00 | 69 | 1017.7 |
| 20260507215852 | 60 | 247 | 3.0 | 9.0 | 0.00 | 0.00 | 0.00 | 75 | 1017.8 |
| 20260507214849 | 62 | 295 | 4.0 | 8.0 | 0.00 | 0.00 | 0.00 | 71 | 1017.9 |
| 20260507214350 | 62 | 328 | 4.0 | 9.0 | 0.00 | 0.00 | 0.00 | 70 | 1017.9 |
| 20260507213849 | 63 | 248 | 4.0 | 9.0 | 0.00 | 0.00 | 0.00 | 71 | 1017.9 |
| 20260507213347 | 62 | 285 | 4.0 | 8.0 | 0.00 | 0.00 | 0.00 | 69 | 1017.9 |
| 20260507212845 | 60 | 232 | 4.0 | 8.0 | 0.00 | 0.00 | 0.00 | 72 | 1018.0 |
| 20260507212345 | 60 | 270 | 4.0 | 8.0 | 0.00 | 0.00 | 0.00 | 74 | 1018.0 |
| 20260507211842 | 60 | 276 | 4.0 | 9.0 | 0.00 | 0.00 | 0.00 | 74 | 1018.0 |
| 20260507211342 | 60 | 285 | 4.0 | 9.0 | 0.00 | 0.00 | 0.00 | 75 | 1018.0 |
| 20260507210835 | 60 | 239 | 3.0 | 5.0 | 0.00 | 0.00 | 0.00 | 77 | 1018.1 |
| 20260507210337 | 59 | 272 | 3.0 | 6.0 | 0.00 | 0.00 | 0.00 | 78 | 1018.1 |
| 20260507205835 | 58 | 230 | 3.0 | 8.0 | 0.00 | 0.00 | 0.00 | 80 | 1018.2 |
| 20260507205336 | 58 | 247 | 3.0 | 8.0 | 0.00 | 0.00 | 0.00 | 78 | 1018.2 |
| 20260507205105 | 60 | 235 | 4.0 | 8.0 | 0.00 | 0.00 | 0.00 | 75 | 1018.2 |
| 20260507204334 | 60 | 322 | 4.0 | 8.0 | 0.00 | 0.00 | 0.00 | 75 | 1018.4 |
| 20260507203837 | 61 | 339 | 3.0 | 8.0 | 0.00 | 0.00 | 0.00 | 78 | 1018.5 |
| 20260507203603 | 59 | 243 | 4.0 | 8.0 | 0.00 | 0.00 | 0.00 | 77 | 1018.4 |
| 20260507202831 | 59 | 320 | 3.0 | 7.0 | 0.00 | 0.00 | 0.00 | 78 | 1018.5 |
| 20260507202551 | 58 | 285 | 2.0 | 5.0 | 0.00 | 0.00 | 0.00 | 79 | 1018.6 |
| 20260507202332 | 58 | 285 | 2.0 | 5.0 | 0.00 | 0.00 | 0.00 | 79 | 1018.6 |
| 20260507201832 | 57 | 337 | 2.0 | 7.0 | 0.00 | 0.00 | 0.00 | 80 | 1018.6 |
| 20260507201329 | 58 | 330 | 3.0 | 7.0 | 0.00 | 0.00 | 0.00 | 76 | 1018.7 |
| 20260507200830 | 60 | 343 | 3.0 | 5.0 | 0.00 | 0.00 | 0.00 | 77 | 1018.7 |
| 20260507200329 | 58 | 314 | 3.0 | 5.0 | 0.00 | 0.00 | 0.00 | 81 | 1018.7 |
| 20260507195830 | 57 | 311 | 2.0 | 5.0 | 0.00 | 0.00 | 0.00 | 79 | 1018.7 |
| 20260507195329 | 58 | 318 | 2.0 | 5.0 | 0.00 | 0.00 | 0.00 | 79 | 1018.7 |
| 20260507195100 | 58 | 333 | 2.0 | 5.0 | 0.00 | 0.00 | 0.00 | 80 | 1018.8 |
| 20260507193832 | 57 | 323 | 2.0 | 5.0 | 0.00 | 0.00 | 0.00 | 81 | 1018.8 |
| 20260507193323 | 57 | 306 | 2.0 | 5.0 | 0.00 | 0.00 | 0.00 | 81 | 1018.8 |
| 20260507192823 | 57 | 354 | 3.0 | 7.0 | 0.00 | 0.00 | 0.00 | 82 | 1018.9 |
| 20260507192321 | 56 | 336 | 3.0 | 8.0 | 0.00 | 0.00 | 0.00 | 83 | 1019.0 |
| 20260507191819 | 56 | 301 | 3.0 | 8.0 | 0.00 | 0.00 | 0.00 | 82 | 1019.0 |
| 20260507191323 | 56 | 309 | 2.0 | 7.0 | 0.00 | 0.00 | 0.00 | 81 | 1019.0 |
| 20260507190820 | 57 | 307 | 2.0 | 7.0 | 0.00 | 0.00 | 0.00 | 81 | 1019.0 |
| 20260507190317 | 56 | 314 | 1.0 | 5.0 | 0.00 | 0.00 | 0.00 | 83 | 1019.0 |
| 20260507185815 | 55 | 8 | 1.0 | 3.0 | 0.00 | 0.00 | 0.00 | 84 | 1019.2 |
| 20260507185315 | 55 | 107 | 1.0 | 3.0 | 0.00 | 0.00 | 0.00 | 84 | 1019.2 |
| 20260507184815 | 55 | 103 | 1.0 | 3.0 | 0.00 | 0.00 | 0.00 | 84 | 1019.2 |
| 20260507184314 | 55 | 310 | 2.0 | 6.0 | 0.00 | 0.00 | 0.00 | 84 | 1019.2 |
| 20260507183813 | 54 | 308 | 3.0 | 6.0 | 0.00 | 0.00 | 0.00 | 84 | 1019.3 |
| 20260507183314 | 55 | 304 | 2.0 | 5.0 | 0.00 | 0.00 | 0.00 | 84 | 1019.3 |
| 20260507183035 | 55 | 328 | 2.0 | 4.0 | 0.00 | 0.00 | 0.00 | 84 | 1019.3 |
| 20260507182313 | 55 | 316 | 2.0 | 4.0 | 0.00 | 0.00 | 0.00 | 84 | 1019.3 |
| 20260507181811 | 54 | 328 | 2.0 | 4.0 | 0.00 | 0.00 | 0.00 | 84 | 1019.3 |
| 20260507181308 | 54 | 319 | 2.0 | 4.0 | 0.00 | 0.00 | 0.00 | 85 | 1019.4 |
| 20260507180809 | 54 | 309 | 2.0 | 4.0 | 0.00 | 0.00 | 0.00 | 84 | 1019.4 |
| 20260507180310 | 55 | 285 | 3.0 | 5.0 | 0.00 | 0.00 | 0.00 | 84 | 1019.4 |
| 20260507175809 | 54 | 295 | 2.0 | 5.0 | 0.00 | 0.00 | 0.00 | 85 | 1019.4 |
| 20260507175042 | 54 | 332 | 2.0 | 4.0 | 0.00 | 0.00 | 0.00 | 84 | 1019.4 |
| 20260507174310 | 54 | 295 | 2.0 | 4.0 | 0.00 | 0.00 | 0.00 | 85 | 1019.4 |
| 20260507173809 | 54 | 319 | 2.0 | 4.0 | 0.00 | 0.00 | 0.00 | 84 | 1019.5 |
| 20260507173307 | 54 | 327 | 2.0 | 5.0 | 0.00 | 0.00 | 0.00 | 85 | 1019.4 |
| 20260507173040 | 54 | 310 | 2.0 | 5.0 | 0.00 | 0.00 | 0.00 | 84 | 1019.4 |
| 20260507172537 | 54 | 311 | 2.0 | 4.0 | 0.00 | 0.00 | 0.00 | 85 | 1019.2 |
| 20260507171305 | 54 | 305 | 2.0 | 4.0 | 0.00 | 0.00 | 0.00 | 85 | 1019.2 |
| 20260507170804 | 53 | 236 | 2.0 | 4.0 | 0.00 | 0.00 | 0.00 | 84 | 1019.2 |
| 20260507170305 | 54 | 295 | 2.0 | 3.0 | 0.00 | 0.00 | 0.00 | 84 | 1019.1 |
| 20260507165804 | 54 | 300 | 2.0 | 4.0 | 0.00 | 0.00 | 0.00 | 85 | 1019.2 |
| 20260507165306 | 54 | 316 | 2.0 | 4.0 | 0.00 | 0.00 | 0.00 | 84 | 1019.1 |
| 20260507164803 | 54 | 310 | 1.0 | 4.0 | 0.00 | 0.00 | 0.00 | 84 | 1019.2 |
| 20260507164303 | 54 | 290 | 1.0 | 3.0 | 0.00 | 0.00 | 0.00 | 85 | 1019.1 |
| 20260507163804 | 53 | 232 | 1.0 | 3.0 | 0.00 | 0.00 | 0.00 | 85 | 1019.2 |
| 20260507163534 | 53 | 214 | 1.0 | 2.0 | 0.00 | 0.00 | 0.00 | 85 | 1019.1 |
| 20260507162802 | 53 | 224 | 1.0 | 3.0 | 0.00 | 0.00 | 0.00 | 85 | 1019.1 |
| 20260507162306 | 53 | 224 | 1.0 | 3.0 | 0.00 | 0.00 | 0.00 | 84 | 1019.3 |
| 20260507161803 | 53 | 220 | 2.0 | 4.0 | 0.00 | 0.00 | 0.00 | 83 | 1019.2 |
| 20260507161302 | 54 | 213 | 2.0 | 4.0 | 0.00 | 0.00 | 0.00 | 83 | 1019.3 |
| 20260507160802 | 53 | 274 | 2.0 | 4.0 | 0.00 | 0.00 | 0.00 | 81 | 1019.2 |
| 20260507160304 | 53 | 330 | 1.0 | 3.0 | 0.00 | 0.00 | 0.00 | 82 | 1019.2 |
| 20260507155803 | 53 | 219 | 2.0 | 4.0 | 0.00 | 0.00 | 0.00 | 83 | 1019.2 |
| 20260507154807 | 53 | 255 | 2.0 | 5.0 | 0.00 | 0.00 | 0.00 | 83 | 1019.3 |
| 20260507154605 | 53 | 243 | 2.0 | 5.0 | 0.00 | 0.00 | 0.00 | 82 | 1019.4 |
| 20260507153804 | 53 | 244 | 2.0 | 5.0 | 0.00 | 0.00 | 0.00 | 81 | 1019.5 |
| 20260507153303 | 54 | 290 | 3.0 | 7.0 | 0.00 | 0.00 | 0.00 | 80 | 1019.6 |
| 20260507153034 | 54 | 272 | 3.0 | 8.0 | 0.00 | 0.00 | 0.00 | 79 | 1019.6 |
| 20260507152301 | 53 | 259 | 4.0 | 10.0 | 0.00 | 0.00 | 0.00 | 78 | 1019.5 |